Location: Gleizolles
(44.4833°N, 6.7667°E)
Time: 06:09:02
(UTC+00:00)

Transit 4A - Pass Details

Date: 04 July 2024
Orbit: 870 x 973 km, 66.8° (Epoch: 14 July)

Event Time Altitude Azimuth Distance (km) Brightness Sun altitude
Rises 01:42:54 0° 333° (NNW) 3,490 11.4 -16.8°
Reaches altitude 10° 01:46:27 10° 354° (N) 2,564 11.0 -16.5°
Maximum altitude 01:50:03 16° 32° (NNE) 2,168 11.0 -16.2°
Drops below altitude 10° 01:53:41 10° 70° (ENE) 2,598 11.0 -15.8°
Sets 01:57:18 0° 91° (E) 3,560 11.4 -15.5°
